Temperature
24 23 23 22 22 21 21 21 20 20 20 19 19 19 19 19 19 18 18 18 18 18 18 18 18 18 18 18 18 18 17 18 18 18 17 17 17 17 17 17 17 17 17
23 23 23 22 22 22 21 21 21 20 20 20 19 19 19 19 19 19 18 18 18 18 18 18 18 18 18 18 18 18 18 18 17 18 17 17 17 17 17 17 17 17 17
23 23 23 23 22 22 22 21 21 21 20 20 19 19 19 19 19 18 18 18 18 18 18 18 18 18 18 18 18 18 18 18 18 18 17 17 17 17 17 17 17 17 17
24 24 23 23 23 22 22 22 21 21 20 20 20 19 19 19 19 19 19 18 18 18 18 18 18 18 18 18 18 18 18 18 18 17 17 17 17 17 17 17 17 17 17
24 24 24 23 23 23 22 22 21 21 20 20 20 19 19 19 19 19 18 18 18 18 18 18 18 18 18 18 18 18 18 18 18 17 17 17 17 17 17 17 17 17 17
24 24 24 23 23 23 22 22 21 21 21 20 20 20 19 19 19 19 18 18 18 18 18 18 18 18 18 18 18 18 18 18 18 18 17 17 17 17 17 17 17 17 17
24 24 23 23 23 23 22 22 21 21 21 20 20 20 20 19 19 19 19 19 18 18 18 18 18 18 18 18 18 18 18 18 18 18 17 17 17 17 17 17 17 17 17
24 24 23 23 23 23 22 22 22 21 21 20 20 20 20 19 19 19 19 19 19 18 18 18 18 18 18 18 18 18 18 17 17 17 17 17 17 17 17 17 17 16 16
24 24 23 23 23 23 22 22 22 21 21 21 20 20 20 20 19 19 19 19 18 18 18 18 18 18 18 18 17 17 17 17 17 17 17 17 17 17 17 17 17 17 16
24 23 23 23 23 23 22 22 22 21 21 21 20 20 20 20 19 19 19 19 19 18 18 18 18 18 18 18 17 17 17 17 17 17 17 17 17 17 17 17 17 16 16
24 23 23 23 22 22 22 22 21 21 21 21 20 20 20 19 19 19 19 19 19 18 18 18 18 18 18 18 17 17 17 17 17 17 17 17 17 17 17 17 17 16 16
23 23 22 22 22 22 22 21 21 21 21 20 20 20 20 19 19 19 19 19 18 18 18 18 18 18 18 17 17 17 17 17 17 17 17 17 17 17 17 17 16 16 16
22 22 22 22 21 21 21 21 21 21 20 20 20 19 19 19 19 19 18 18 18 18 18 18 18 18 17 17 17 17 17 17 16 16 16 16 16 16 16 16 16 16 16
21 21 21 21 21 21 21 21 20 20 20 20 20 19 19 19 19 19 18 18 18 18 18 18 17 17 17 17 17 17 17 16 16 16 16 16 16 16 16 16 16 16 16
20 20 20 20 20 20 20 20 20 20 20 20 19 19 19 19 19 18 18 18 18 18 17 17 17 17 17 17 17 16 16 16 16 16 16 16 16 16 16 16 16 16 15
19 19 19 19 20 20 20 20 20 20 20 19 19 19 19 18 18 18 18 18 18 17 17 17 17 17 17 17 16 16 16 16 16 16 16 16 16 16 16 15 15 15 15
19 19 19 19 19 20 19 19 19 19 19 19 19 18 18 18 18 18 18 17 17 17 17 17 17 16 16 16 16 16 16 16 16 16 16 16 16 15 15 15 15 15 15
18 19 19 19 19 19 19 19 19 19 19 18 18 18 18 17 17 17 17 17 17 16 16 16 16 16 16 16 16 16 16 16 16 16 15 15 15 15 15 15 15 15 15
18 18 18 18 18 18 18 18 18 18 18 17 17 17 17 17 17 16 16 16 16 16 16 16 16 16 16 16 16 15 15 15 15 15 15 15 15 15 15 14 14 14 14
18 18 18 18 18 18 17 17 17 17 17 17 17 17 17 16 16 16 16 16 15 15 15 15 15 15 15 15 15 15 15 15 15 15 15 14 14 14 14 14 14 14 14
18 18 17 17 17 17 17 17 17 16 16 16 16 16 16 16 16 15 15 15 15 15 15 15 15 15 15 15 15 15 15 15 14 14 14 14 14 14 14 14 14 14 14
17 17 17 17 17 17 17 16 16 16 16 16 16 15 15 15 15 15 14 14 14 14 14 14 14 14 14 14 15 15 14 14 14 14 14 14 14 14 13 13 13 13 13
16 16 16 16 16 16 16 16 15 15 15 15 15 15 15 15 14 14 14 14 14 14 14 14 14 14 14 14 14 14 14 14 14 14 14 14 13 13 13 13 13 13 13
16 15 15 15 15 15 15 15 15 15 14 14 14 14 14 14 14 14 14 14 13 13 13 13 13 13 14 14 14 14 14 13 13 13 13 13 13 13 13 13 13 12 12
15 15 15 15 15 14 14 14 14 14 14 14 14 14 13 13 13 13 13 13 13 13 13 13 13 13 13 13 13 13 13 13 13 13 13 13 12 12 12 12 12 12 12
15 14 14 14 14 14 14 14 14 14 14 13 13 13 13 13 13 13 13 13 13 13 13 13 13 13 13 13 13 13 13 13 13 12 12 12 12 12 12 12 12 12 11
Wind_Speed
13 14 15 15 13 11 11 10 10 8 6 4 4 4 3 3 3 4 6 7 7 7 6 3 3 3 3 3 4 3 3 2 3 2 1 2 1 1 2 2 2 4 7
12 14 14 15 14 14 12 11 10 10 8 6 5 4 4 3 3 3 4 7 7 7 6 5 4 4 3 3 3 3 3 2 3 3 2 1 2 2 2 2 3 3 4
17 16 16 15 15 14 14 13 11 10 9 7 4 3 3 2 2 2 3 5 7 7 5 5 5 4 4 4 4 4 5 3 2 3 4 3 3 1 2 2 3 3 3
16 16 16 16 16 16 14 12 12 10 9 8 7 6 5 5 5 4 3 4 5 6 6 5 5 4 4 4 4 4 4 4 3 3 3 3 4 3 1 2 2 3 4
17 17 17 17 16 15 14 12 11 10 9 9 9 8 6 5 3 3 4 3 3 4 5 5 4 4 3 4 4 3 4 4 4 4 2 2 2 2 3 3 2 2 3
15 15 14 13 13 14 13 12 12 10 10 10 9 8 8 6 5 4 4 3 3 3 4 4 4 4 4 4 4 4 4 4 4 4 3 3 3 3 4 4 3 3 3
14 14 14 14 14 15 15 13 13 11 10 10 9 8 8 8 8 6 6 5 3 3 4 4 4 4 4 4 4 4 4 4 4 5 4 4 4 4 4 4 3 3 2
14 16 16 16 15 16 15 14 13 12 11 10 9 8 8 6 5 6 5 5 5 5 4 4 4 5 5 5 4 4 4 4 4 5 4 4 4 4 4 4 4 2 2
12 13 14 14 14 14 14 14 13 11 11 10 9 8 7 7 6 6 5 4 3 4 4 4 4 4 4 4 4 3 4 3 4 4 4 4 4 4 4 4 5 5 3
8 8 10 12 12 12 12 11 12 11 10 9 9 8 7 7 6 5 5 4 4 3 4 4 4 4 3 3 3 2 3 3 3 3 3 3 3 3 3 4 4 5 5
8 7 8 9 10 10 10 10 10 9 9 9 8 7 7 7 6 6 5 5 4 4 5 4 4 4 3 3 3 3 2 3 3 3 3 4 3 3 3 3 4 4 4
7 7 8 8 8 10 10 10 10 9 9 9 7 7 7 7 7 6 6 5 5 5 4 4 4 4 3 3 3 4 3 3 4 4 3 4 3 3 3 3 4 4 4
5 6 7 7 9 9 9 9 9 9 8 8 8 6 7 7 7 7 6 5 5 5 4 4 4 4 3 4 4 4 4 4 5 5 4 4 4 4 4 4 4 4 4
6 5 5 5 6 7 8 8 7 7 7 6 7 7 7 7 7 6 6 6 6 5 5 4 4 4 4 4 4 4 4 4 5 5 5 5 5 5 5 5 4 4 4
6 5 4 4 5 6 6 6 6 6 7 6 6 6 6 6 6 5 5 5 5 6 5 4 3 3 3 3 3 3 3 3 4 4 4 5 5 6 5 4 4 4 3
6 5 4 4 5 6 6 6 6 6 6 7 6 5 5 5 5 5 4 4 4 4 4 4 4 4 4 4 4 3 3 3 3 4 4 4 4 6 6 7 7 7 6
6 5 4 5 5 5 6 5 5 6 6 6 5 4 4 4 4 4 4 4 5 4 4 4 5 5 5 4 4 4 3 3 3 4 4 4 3 3 3 4 5 6 8
3 4 4 4 4 4 4 4 4 5 6 5 4 4 4 4 4 3 4 5 4 4 5 5 5 5 5 5 5 4 4 3 4 4 4 4 4 4 4 3 3 4 4
4 4 5 5 5 5 4 5 5 4 5 4 3 3 4 4 4 4 4 4 4 4 4 5 5 5 5 5 5 4 2 2 3 3 3 3 5 6 5 4 4 4 4
5 5 5 6 5 4 4 6 5 4 3 2 2 2 3 4 4 5 5 4 4 5 4 4 4 5 5 5 5 5 3 3 3 3 3 4 4 4 5 4 4 5 4
4 5 6 5 4 4 5 5 4 3 2 2 1 1 2 2 2 3 3 3 3 3 3 4 3 4 5 5 5 5 3 4 4 4 4 4 5 5 6 6 5 7 5
5 5 5 4 2 3 4 4 2 2 1 1 1 0 1 1 1 1 2 2 3 3 2 2 3 3 4 5 5 5 6 5 5 5 4 4 5 6 6 5 6 6 4
4 4 5 4 2 2 3 3 1 1 2 2 1 0 1 1 1 2 2 2 3 3 3 2 3 3 2 3 5 4 4 5 4 4 5 5 5 5 4 6 6 5 3
4 3 4 4 2 1 2 1 1 2 2 1 1 1 1 1 1 1 1 2 2 2 2 3 3 3 3 3 2 3 3 3 3 3 3 3 4 4 4 4 4 4 4
3 3 4 4 2 1 1 0 1 2 2 1 1 1 1 1 0 1 2 2 3 4 4 4 4 4 4 6 6 4 3 3 4 2 1 1 1 2 2 2 3 3 3
3 4 3 3 2 1 1 0 0 1 2 2 1 1 1 1 1 0 2 3 2 3 5 6 5 4 6 6 5 5 5 4 3 3 2 3 3 3 3 3 3 4 4
Wind_Direction
183 174 171 169 167 166 164 167 167 170 161 157 154 152 167 177 172 180 181 176 179 180 171 166 166 165 166 167 158 146 146 164 143 109 57 358 300 219 221 205 192 194 197
180 179 176 173 172 172 170 169 171 173 171 174 172 166 159 169 179 185 181 182 181 183 182 173 178 176 170 167 164 157 158 177 157 144 130 350 342 314 232 213 203 204 189
187 183 180 180 175 176 176 176 175 174 176 170 154 139 113 104 133 176 189 192 187 187 186 178 177 180 175 182 188 179 172 189 206 176 159 169 213 272 306 242 220 208 200
189 184 181 181 181 182 179 175 175 176 177 169 163 161 167 179 192 187 185 188 187 185 187 180 177 181 181 189 201 191 182 176 204 228 213 188 169 172 253 304 259 227 214
187 185 184 183 182 180 179 178 174 178 177 174 174 174 181 187 177 162 167 180 185 182 180 174 172 177 184 197 203 192 186 186 193 202 199 196 191 179 182 241 272 280 245
186 185 182 177 178 179 177 177 176 182 180 178 178 180 181 178 166 168 176 184 185 189 192 184 180 185 192 200 204 198 192 201 203 205 196 182 184 193 187 212 231 248 259
186 182 175 176 179 179 178 179 178 183 183 180 181 183 180 175 178 180 184 182 184 195 208 202 196 199 206 209 204 198 204 205 206 211 212 207 209 190 178 188 213 233 260
185 186 183 179 179 180 178 177 179 182 182 181 184 182 177 177 183 187 184 186 193 202 203 202 205 207 207 213 206 208 216 212 216 225 219 217 221 202 191 186 181 207 266
185 185 180 179 177 177 178 176 176 177 181 183 179 178 179 179 182 184 181 186 198 204 198 199 200 207 208 210 197 209 224 219 222 227 224 227 229 214 211 197 185 182 211
168 172 176 180 177 175 172 171 173 176 175 178 183 187 186 186 183 176 182 187 197 203 187 192 196 200 200 201 195 212 227 218 230 224 224 237 240 229 215 206 200 190 190
162 163 168 166 166 163 165 167 170 171 174 176 178 183 183 182 179 181 188 188 193 194 191 192 190 192 199 201 199 220 228 229 241 244 235 242 238 233 226 210 202 200 186
158 159 155 153 159 163 163 166 171 173 177 177 176 181 182 178 181 192 193 186 189 194 193 188 190 202 206 203 201 219 229 230 243 248 245 248 244 238 225 208 209 211 200
132 138 144 155 165 166 165 166 173 175 172 170 173 176 181 184 187 194 193 188 191 194 192 190 197 206 206 206 211 214 222 227 234 238 237 244 235 240 234 219 215 214 210
111 110 133 156 166 167 166 161 164 171 169 169 172 177 185 187 187 189 188 191 192 192 195 198 204 205 204 209 216 218 226 238 242 240 235 234 227 229 228 227 220 209 203
113 125 142 146 145 148 155 159 160 167 167 168 178 188 189 185 181 183 188 191 192 199 199 197 209 212 209 221 221 225 233 244 257 255 246 242 232 226 219 219 208 196 198
126 142 150 142 140 145 152 156 162 168 165 172 183 186 178 175 180 184 185 187 194 198 193 200 202 212 229 232 219 216 231 237 244 257 260 260 249 238 222 220 213 199 200
142 152 148 149 148 150 152 158 169 164 163 176 177 177 178 180 189 188 184 196 203 200 202 209 204 215 229 224 223 223 220 232 242 250 256 265 264 231 221 228 229 227 222
134 134 124 119 118 119 122 125 123 141 155 167 172 178 182 190 193 196 203 207 207 206 209 215 210 216 232 227 226 227 224 233 241 242 240 238 245 234 217 216 227 241 242
140 130 118 108 101 104 112 109 104 108 125 143 156 169 170 181 186 197 216 218 212 215 221 220 213 213 238 239 228 208 221 243 254 251 249 243 240 242 215 201 220 243 261
107 113 111 101 97 95 102 108 110 107 117 135 158 160 170 183 193 203 219 220 211 217 221 229 218 210 224 233 217 195 198 231 253 265 261 252 246 238 206 200 209 234 249
100 100 102 99 105 108 101 109 113 128 169 153 144 152 172 186 191 206 214 209 206 205 216 219 223 222 224 232 224 201 200 220 234 242 249 252 249 237 224 215 217 228 228
99 102 102 100 105 110 108 112 142 185 164 139 129 100 251 228 186 194 228 213 192 194 210 216 239 243 236 232 230 219 221 220 224 237 238 236 234 233 231 231 233 228 216
105 102 111 100 79 98 124 132 181 162 136 117 93 26 294 262 209 197 206 220 207 200 211 216 236 255 254 250 243 227 228 228 223 236 237 238 237 231 232 231 230 223 210
120 114 113 107 84 68 110 143 176 153 141 145 163 215 232 313 321 263 218 215 218 213 217 231 239 245 251 253 247 238 228 227 222 229 241 245 239 228 229 234 234 226 214
131 127 129 127 122 75 72 93 175 134 139 161 192 219 210 205 251 312 270 242 226 209 207 234 231 232 245 244 227 221 225 220 213 199 201 210 222 227 235 238 240 231 223
130 124 123 124 126 101 63 348 69 145 157 175 214 236 242 229 150 158 326 326 271 245 229 225 225 238 239 240 234 237 239 235 194 155 195 221 221 227 232 233 237 233 233
Height
1510 1512 1515 1517 1520 1522 1524 1526 1527 1529 1530 1532 1533 1534 1535 1536 1538 1539 1540 1541 1542 1542 1543 1544 1545 1546 1546 1547 1548 1549 1550 1551 1552 1553 1553 1554 1555 1555 1555 1555 1556 1556 1556
1508 1510 1512 1515 1517 1519 1521 1524 1525 1527 1529 1531 1532 1534 1535 1536 1537 1538 1539 1540 1541 1541 1542 1543 1544 1545 1545 1546 1547 1548 1549 1550 1551 1551 1552 1552 1554 1552 1553 1553 1554 1554 1555
1503 1506 1509 1511 1514 1517 1519 1521 1523 1525 1527 1530 1532 1533 1535 1535 1536 1537 1538 1539 1540 1540 1541 1542 1543 1544 1544 1545 1546 1547 1548 1548 1549 1550 1550 1550 1550 1550 1551 1551 1552 1552 1552
1499 1501 1505 1508 1511 1514 1517 1520 1522 1524 1526 1528 1529 1531 1532 1533 1534 1536 1537 1538 1538 1539 1540 1540 1541 1542 1543 1543 1544 1545 1545 1546 1546 1547 1548 1548 1548 1549 1549 1549 1549 1550 1550
1494 1498 1501 1504 1508 1512 1515 1518 1520 1523 1524 1526 1528 1529 1530 1532 1533 1535 1536 1536 1537 1538 1538 1539 1540 1540 1541 1541 1542 1543 1543 1544 1544 1544 1545 1545 1546 1546 1546 1546 1547 1547 1547
1492 1495 1498 1503 1506 1510 1513 1515 1518 1520 1522 1524 1526 1527 1529 1530 1531 1532 1533 1534 1535 1536 1537 1537 1538 1538 1539 1539 1540 1541 1541 1542 1542 1542 1543 1543 1543 1543 1544 1543 1544 1544 1545
1488 1492 1496 1499 1503 1506 1509 1512 1515 1518 1520 1522 1524 1525 1527 1528 1529 1530 1531 1532 1533 1534 1534 1535 1536 1536 1537 1538 1538 1538 1538 1539 1539 1540 1540 1540 1540 1541 1541 1541 1541 1541 1541
1484 1488 1491 1494 1499 1502 1506 1509 1512 1515 1517 1520 1521 1523 1525 1526 1527 1528 1529 1530 1531 1532 1533 1533 1534 1534 1535 1535 1535 1536 1536 1536 1536 1537 1537 1537 1537 1538 1538 1538 1539 1538 1538
1480 1484 1487 1491 1495 1499 1502 1505 1509 1512 1514 1517 1519 1521 1522 1524 1525 1526 1527 1528 1529 1530 1531 1531 1531 1532 1532 1532 1532 1533 1533 1533 1533 1533 1534 1534 1534 1534 1535 1535 1535 1536 1535
1477 1482 1485 1488 1493 1496 1500 1503 1507 1509 1512 1514 1516 1518 1520 1521 1523 1524 1525 1526 1527 1528 1528 1529 1529 1529 1529 1529 1530 1529 1530 1530 1530 1530 1530 1530 1530 1530 1531 1531 1531 1532 1532
1475 1478 1482 1486 1490 1494 1497 1500 1504 1507 1509 1511 1513 1515 1517 1519 1520 1521 1523 1523 1524 1525 1526 1526 1526 1526 1526 1526 1526 1526 1526 1526 1526 1526 1526 1526 1526 1526 1527 1527 1527 1528 1529
1474 1476 1480 1484 1487 1491 1494 1497 1500 1503 1506 1508 1510 1512 1514 1516 1517 1518 1519 1520 1521 1522 1523 1523 1523 1523 1523 1523 1523 1523 1523 1522 1522 1522 1523 1522 1523 1522 1523 1523 1523 1524 1525
1474 1475 1478 1482 1485 1488 1491 1494 1497 1500 1503 1505 1507 1509 1510 1512 1513 1514 1516 1516 1517 1518 1519 1519 1520 1520 1520 1520 1519 1519 1519 1519 1519 1519 1519 1519 1519 1518 1519 1519 1519 1520 1521
1473 1475 1477 1480 1483 1486 1489 1491 1494 1497 1500 1502 1503 1505 1506 1508 1509 1511 1512 1513 1514 1515 1515 1516 1516 1516 1516 1516 1516 1516 1516 1515 1515 1515 1515 1515 1515 1515 1515 1515 1515 1516 1516
1473 1475 1476 1478 1481 1484 1487 1489 1491 1494 1496 1498 1500 1501 1503 1504 1506 1507 1508 1509 1510 1511 1511 1512 1512 1513 1513 1512 1512 1512 1512 1511 1511 1511 1511 1511 1511 1511 1511 1511 1511 1512 1512
1473 1476 1477 1478 1479 1481 1483 1486 1488 1491 1493 1494 1496 1498 1499 1500 1502 1503 1504 1505 1506 1506 1507 1507 1508 1508 1509 1509 1508 1508 1508 1507 1507 1506 1506 1506 1507 1507 1507 1507 1508 1508 1509
1473 1474 1476 1477 1478 1480 1482 1484 1486 1488 1490 1492 1493 1494 1496 1497 1498 1499 1500 1501 1501 1502 1502 1503 1504 1504 1505 1505 1505 1504 1503 1503 1503 1502 1502 1502 1502 1503 1502 1503 1503 1504 1504
1474 1475 1476 1477 1478 1480 1481 1482 1483 1484 1487 1489 1490 1491 1493 1494 1494 1496 1497 1497 1498 1498 1499 1499 1499 1500 1500 1500 1500 1500 1499 1498 1498 1498 1498 1498 1498 1498 1498 1498 1498 1499 1499
1473 1474 1475 1476 1478 1479 1479 1480 1482 1483 1485 1486 1487 1488 1489 1491 1490 1491 1493 1494 1494 1494 1495 1495 1495 1495 1495 1496 1496 1496 1495 1494 1494 1494 1494 1494 1494 1494 1494 1494 1493 1493 1494
1472 1474 1475 1476 1477 1478 1478 1479 1481 1481 1482 1483 1484 1485 1487 1487 1488 1488 1490 1490 1490 1490 1490 1490 1491 1491 1491 1491 1491 1492 1491 1490 1490 1489 1489 1489 1489 1489 1489 1489 1489 1488 1489
1472 1473 1474 1476 1477 1478 1478 1478 1479 1480 1481 1482 1483 1483 1483 1484 1484 1485 1485 1485 1485 1485 1484 1484 1485 1486 1487 1487 1487 1487 1486 1486 1485 1484 1484 1485 1485 1485 1485 1485 1485 1484 1485
1472 1473 1474 1475 1477 1477 1477 1478 1478 1479 1480 1480 1479 1479 1480 1480 1480 1480 1481 1481 1482 1481 1480 1480 1480 1481 1482 1482 1482 1482 1482 1481 1481 1480 1480 1480 1480 1480 1480 1480 1480 1480 1480
1471 1473 1474 1475 1475 1476 1477 1477 1477 1478 1478 1478 1477 1478 1478 1478 1477 1477 1477 1477 1478 1477 1477 1477 1477 1477 1478 1478 1478 1477 1477 1477 1476 1476 1476 1475 1475 1475 1475 1475 1476 1476 1475
1471 1472 1473 1474 1474 1475 1475 1475 1475 1476 1476 1476 1475 1476 1476 1475 1475 1474 1475 1475 1474 1472 1473 1474 1473 1473 1474 1474 1473 1473 1472 1472 1472 1472 1471 1471 1471 1471 1471 1471 1471 1471 1471
1470 1471 1472 1472 1472 1473 1473 1474 1474 1474 1474 1474 1474 1474 1473 1472 1471 1472 1472 1472 1472 1471 1471 1471 1470 1470 1470 1470 1470 1469 1468 1468 1467 1467 1467 1466 1466 1466 1465 1465 1466 1466 1466
1469 1469 1470 1470 1471 1471 1472 1472 1472 1471 1471 1471 1470 1471 1470 1469 1469 1469 1469 1469 1469 1469 1469 1468 1468 1467 1467 1466 1465 1465 1465 1464 1463 1463 1462 1461 1461 1461 1460 1460 1460 1461 1461